sat.trackr.live / text

‹ back to catalog

STARLINK-4213

NORAD 52872 · 2022-062AU

PAYLOAD ACTIVE UNKNOWN

§ Identity

Operator
Country
US
Launch date
2022-06-17
Launch site
AFETR
Launch vehicle
Mass (kg)
RCS (m²)

Purposes: comms

External: N2YO · Heavens-Above · Gunter

§ Orbital elements

Epoch: 2026-09-19T13:40:40.401984Z

Period
94.01 min
Inclination
53.1588°
Eccentricity
0.0001216
Mean motion
15.31703876 rev/d
Perigee alt
469.9 km
Apogee alt
471.6 km
Semi-major
6,848.9 km
B*
2.6641e-5
RAAN
209.5903°
Arg perigee
79.8852°
Mean anomaly
280.2286°
Rev number
23,552

§ Raw data

STARLINK-42131 52872U 22062AU  26262.56991206  .00000462  00000+0  26641-4 0  99962 52872  53.1588 209.5903 0001216  79.8852 280.2286 15.31703876235529

JSON: /api/v1/satellites/52872 · /tle

For live sub-satellite position, see the globe view (requires WebGL).

§ Visibility from observer

Set your observer location to see the next 7 days of passes ≥ 10°. The values pass through the URL so the page stays shareable.

No JS? Fill the form by hand. The geolocation button needs JavaScript.